Date String (YYYY-MM-DD hh:mm:ss) UTC,Instrument flags,absolute air pressure of the measurement (hPa),sample flow rate (lpm),inlet stack bypass flow (lpm),air temperature of the measurement (°C),ambient temperature measured by the external sensor (°C),aerosol sample conditioner tube jacket temperature (°C),OPC LED temperature (°C),internal box temperature (°C),relative humidity of the measurement (%),span deviation,mass concentration of particles derived from Lorenz-Mie calculation of OPC scattering (μg/m³),mass concentration of particles derived from Lorenz-Mie calculation of OPC scattering (μg/m³),mass concentration of particles derived from Lorenz-Mie calculation of OPC scattering (μg/m³)
DateTimeUTC,F1_M11,P_M11,Q1_M11,Q2_M11,T1_M11,T2_M11,T3_M11,T4_M11,T5_M11,U1_M11,ZSPAN_M11,X0_M11,X2_M11,X1_M11
2023-11-18 04:00:00,SystemResetWarning,0831.9,5.00,000.00,025.5,024.4,000.0,033.9,026.8,16.4,0000.0,0012.76,0004.68,0003.87
2023-11-18 04:01:00,SystemResetWarning,0831.9,5.00,000.00,025.5,024.4,000.0,033.9,026.9,16.4,0000.0,0012.92,0004.66,0003.86
2023-11-18 04:02:00,SystemResetWarning,0831.9,5.00,000.00,025.5,024.4,000.0,033.9,026.8,16.4,0000.0,0013.20,0004.59,0003.82
2023-11-18 04:03:00,SystemResetWarning,0831.8,5.00,000.00,025.5,024.4,000.0,033.9,026.8,16.4,0000.0,0013.53,0004.53,0003.77
2023-11-18 04:04:00,SystemResetWarning,0831.8,5.00,000.00,025.5,024.3,000.0,033.9,026.8,16.6,0000.0,0013.55,0004.46,0003.74
2023-11-18 04:05:00,SystemResetWarning,0831.8,5.00,000.00,025.5,024.3,000.0,033.9,026.9,16.7,0000.0,0012.67,0004.40,0003.70
2023-11-18 04:06:00,SystemResetWarning,0831.8,5.00,000.00,025.5,024.3,000.0,033.9,026.8,16.6,0000.0,0011.98,0004.35,0003.67
2023-11-18 04:07:00,SystemResetWarning,0831.8,5.00,000.00,025.5,024.3,000.0,033.9,026.8,16.6,0000.0,0011.48,0004.30,0003.62
2023-11-18 04:08:00,SystemResetWarning,0831.9,5.00,000.00,025.5,024.3,000.0,033.9,026.8,16.6,0000.0,0010.70,0004.26,0003.59
2023-11-18 04:09:00,SystemResetWarning,0831.9,5.00,000.00,025.5,024.3,000.0,033.9,026.8,16.6,0000.0,0010.40,0004.27,0003.56
2023-11-18 04:10:00,SystemResetWarning,0831.9,5.00,000.00,025.5,024.3,000.0,033.9,026.8,16.5,0000.0,0010.46,0004.27,0003.55
2023-11-18 04:11:00,SystemResetWarning,0832.0,5.00,000.00,025.5,024.3,000.0,033.9,026.8,16.6,0000.0,0010.35,0004.21,0003.56
2023-11-18 04:12:00,SystemResetWarning,0832.0,5.00,000.00,025.5,024.3,000.0,033.9,026.8,16.5,0000.0,0010.44,0004.19,0003.55
2023-11-18 04:13:00,SystemResetWarning,0831.9,5.00,000.00,025.5,024.3,000.0,033.9,026.8,16.3,0000.0,0010.13,0004.18,0003.53
2023-11-18 04:14:00,SystemResetWarning,0831.9,5.00,000.00,025.5,024.3,000.0,033.9,026.8,16.3,0000.0,0009.89,0004.19,0003.53
2023-11-18 04:15:00,SystemResetWarning,0832.0,5.00,000.00,025.5,024.3,000.0,033.8,026.8,16.4,0000.0,0009.96,0004.22,0003.53
2023-11-18 04:16:00,SystemResetWarning,0831.9,5.00,000.00,025.5,024.4,000.0,033.8,026.8,16.5,0000.0,0010.34,0004.27,0003.52
2023-11-18 04:17:00,SystemResetWarning,0831.9,5.00,000.00,025.5,024.3,000.0,033.8,026.8,16.4,0000.0,0010.27,0004.28,0003.51
2023-11-18 04:18:00,SystemResetWarning,0831.9,5.00,000.00,025.5,024.3,000.0,033.8,026.8,16.4,0000.0,0010.77,0004.26,0003.48
2023-11-18 04:19:00,SystemResetWarning,0831.9,5.00,000.00,025.5,024.3,000.0,033.8,026.8,16.6,0000.0,0010.86,0004.25,0003.47
2023-11-18 04:20:00,SystemResetWarning,0831.9,5.00,000.00,025.5,024.3,000.0,033.8,026.8,16.8,0000.0,0010.84,0004.20,0003.45
2023-11-18 04:21:00,SystemResetWarning,0831.9,5.00,000.00,025.5,024.3,000.0,033.8,026.8,16.8,0000.0,0011.66,0004.19,0003.44
2023-11-18 04:22:00,SystemResetWarning,0831.9,5.00,000.00,025.5,024.3,000.0,033.8,026.9,16.7,0000.0,0011.72,0004.21,0003.43
2023-11-18 04:23:00,SystemResetWarning,0831.8,5.01,000.00,025.5,024.3,000.0,033.8,026.9,16.7,0000.0,0011.05,0004.17,0003.41
2023-11-18 04:24:00,SystemResetWarning,0831.8,5.00,000.00,025.5,024.3,000.0,033.8,026.8,16.5,0000.0,0011.03,0004.12,0003.38
2023-11-18 04:25:00,SystemResetWarning,0831.8,5.00,000.00,025.5,024.3,000.0,033.8,026.8,16.5,0000.0,0011.23,0004.12,0003.36
2023-11-18 04:26:00,SystemResetWarning,0831.9,5.00,000.00,025.5,024.3,000.0,033.8,026.8,16.4,0000.0,0010.93,0004.09,0003.34
2023-11-18 04:27:00,SystemResetWarning,0831.9,5.00,000.00,025.5,024.3,000.0,033.8,026.8,16.4,0000.0,0010.46,0004.05,0003.34
2023-11-18 04:28:00,SystemResetWarning,0831.8,5.01,000.00,025.5,024.3,000.0,033.8,026.8,16.3,0000.0,0010.60,0004.05,0003.34
2023-11-18 04:29:00,SystemResetWarning,0831.8,5.00,000.00,025.4,024.2,000.0,033.8,026.8,16.2,0000.0,0009.95,0004.02,0003.34
2023-11-18 04:30:00,SystemResetWarning,0831.8,5.00,000.00,025.4,024.3,000.0,033.8,026.8,16.2,0000.0,0009.99,0004.01,0003.34
2023-11-18 04:31:00,SystemResetWarning,0831.8,5.00,000.00,025.4,024.3,000.0,033.8,026.7,16.3,0000.0,0010.54,0004.02,0003.34
2023-11-18 04:32:00,SystemResetWarning,0832.1,5.00,000.00,025.4,024.3,000.0,033.8,026.7,16.5,0000.0,0010.07,0003.99,0003.32
2023-11-18 04:33:00,SystemResetWarning,0832.2,5.00,000.00,025.4,024.3,000.0,033.8,026.8,16.4,0000.0,0010.63,0003.93,0003.31
2023-11-18 04:34:00,SystemResetWarning,0832.3,5.00,000.00,025.4,024.3,000.0,033.8,026.8,16.1,0000.0,0010.96,0003.93,0003.30
2023-11-18 04:35:00,SystemResetWarning,0832.1,4.99,000.00,025.4,024.2,000.0,033.8,026.8,16.1,0000.0,0011.90,0003.94,0003.29
2023-11-18 04:36:00,SystemResetWarning,0832.3,4.99,000.00,025.4,024.2,000.0,033.8,026.8,16.1,0000.0,0011.62,0003.92,0003.27
2023-11-18 04:37:00,SystemResetWarning,0831.9,5.01,000.00,025.4,024.2,000.0,033.8,026.8,16.2,0000.0,0011.35,0003.87,0003.26
2023-11-18 04:38:00,SystemResetWarning,0831.7,5.00,000.00,025.4,024.2,000.0,033.8,026.8,16.2,0000.0,0011.78,0003.89,0003.24
2023-11-18 04:39:00,SystemResetWarning,0831.7,5.00,000.00,025.4,024.2,000.0,033.8,026.8,16.0,0000.0,0012.28,0003.89,0003.22
2023-11-18 04:40:00,SystemResetWarning,0831.7,4.99,000.00,025.4,024.2,000.0,033.8,026.7,16.0,0000.0,0012.64,0003.85,0003.19
2023-11-18 04:41:00,SystemResetWarning,0831.7,5.00,000.00,025.4,024.2,000.0,033.8,026.7,15.9,0000.0,0013.26,0003.82,0003.17
2023-11-18 04:42:00,SystemResetWarning,0831.6,4.99,000.00,025.4,024.2,000.0,033.8,026.7,15.9,0000.0,0012.68,0003.80,0003.16
2023-11-18 04:43:00,SystemResetWarning,0831.6,5.00,000.00,025.4,024.2,000.0,033.8,026.7,15.9,0000.0,0012.49,0003.77,0003.15
2023-11-18 04:44:00,SystemResetWarning,0831.7,5.00,000.00,025.4,024.2,000.0,033.8,026.7,15.9,0000.0,0011.65,0003.77,0003.13
2023-11-18 04:45:00,SystemResetWarning,0831.6,4.99,000.00,025.4,024.2,000.0,033.8,026.7,16.0,0000.0,0011.08,0003.77,0003.12
2023-11-18 04:46:00,SystemResetWarning,0831.6,5.00,000.00,025.4,024.2,000.0,033.8,026.7,16.0,0000.0,0010.71,0003.72,0003.10
2023-11-18 04:47:00,SystemResetWarning,0831.6,5.00,000.00,025.4,024.2,000.0,033.8,026.7,16.0,0000.0,0010.69,0003.72,0003.09
2023-11-18 04:48:00,SystemResetWarning,0831.6,5.00,000.00,025.3,024.2,000.0,033.8,026.7,16.1,0000.0,0010.60,0003.70,0003.08
2023-11-18 04:49:00,SystemResetWarning,0831.6,5.01,000.00,025.3,024.2,000.0,033.7,026.7,16.0,0000.0,0010.84,0003.65,0003.03
2023-11-18 04:50:00,SystemResetWarning,0831.6,5.00,000.00,025.3,024.2,000.0,033.7,026.7,16.0,0000.0,0010.12,0003.57,0002.99
2023-11-18 04:51:00,SystemResetWarning,0831.6,5.01,000.00,025.3,024.2,000.0,033.7,026.7,16.1,0000.0,0010.49,0003.61,0002.98
2023-11-18 04:52:00,SystemResetWarning,0831.6,5.00,000.00,025.3,024.1,000.0,033.7,026.7,16.1,0000.0,0010.68,0003.61,0002.98
2023-11-18 04:53:00,SystemResetWarning,0831.6,5.01,000.00,025.3,024.1,000.0,033.7,026.6,16.2,0000.0,0010.71,0003.61,0002.96
2023-11-18 04:54:00,SystemResetWarning,0831.6,5.00,000.00,025.3,024.2,000.0,033.7,026.6,16.3,0000.0,0010.43,0003.62,0002.95
2023-11-18 04:55:00,SystemResetWarning,0831.6,4.98,000.00,025.3,024.2,000.0,033.7,026.6,16.4,0000.0,0010.45,0003.62,0002.93
2023-11-18 04:56:00,SystemResetWarning,0831.6,4.99,000.00,025.3,024.1,000.0,033.7,026.6,16.4,0000.0,0010.44,0003.61,0002.94
2023-11-18 04:57:00,SystemResetWarning,0831.6,5.01,000.00,025.3,024.1,000.0,033.7,026.6,16.4,0000.0,0010.29,0003.62,0002.95
2023-11-18 04:58:00,SystemResetWarning,0831.6,5.01,000.00,025.3,024.1,000.0,033.7,026.7,16.4,0000.0,0009.87,0003.62,0002.96
2023-11-18 04:59:00,SystemResetWarning,0831.6,5.01,000.00,025.3,024.1,000.0,033.7,026.6,16.4,0000.0,0010.08,0003.61,0002.96
